SCP
0 0 0 0 0 0 0 0 0 0 0 0 0 0 0 0 0 0 0 0 0 0 0 0 0 0 0 0 0 0 0 0 0 0 0 0 0 0 0 0 0 0 0 0
0 0 0 0 0 0 0 0 0 0 0 0 0 0 0 0 0 0 0 0 0 0 0 0 0 0 0 0 0 0 0 0 0 0 0 0 0 0 0 0 0 0 0 0
0 0 0 0 0 0 0 0 0 0 0 0 0 0 0 0 0 0 0 0 0 0 0 0 0 0 0 0 0 0 0 0 0 0 0 0 0 0 0 0 0 0 0 0
0 0 0 0 0 0 0 0 0 0 0 0 0 0 0 0 0 0 0 0 0 0 0 0 0 0 0 0 0 0 0 0 0 0 0 0 0 0 0 0 0 0 0 0
0 0 0 0 0 0 0 0 0 0 0 0 0 0 0 0 0 0 0 0 0 0 0 0 0 0 0 0 0 0 0 0 0 0 0 0 0 0 0 0 0 0 0 0
0 0 0 0 0 0 0 0 0 0 0 0 0 0 0 0 0 0 0 0 0 0 0 0 0 0 0 -0 -0 -0 -0 0 0 0 0 -0 -0 -0 -0 -0 -0 -0 -0 -0
0 0 0 0 0 0 0 0 0 0 0 0 0 0 0 0 0 0 0 0 0 0 0 0 0 0 -0 -0 -0 -0 0 0 0 0 0 -0 -0 -0 -0 -0 -0 -0 -0 -0
0 0 0 0 0 0 0 0 0 0 0 0 0 0 0 0 0 0 0 0 0 0 0 0 0 -0 -0 0 0 0 0 0 0 0 0 0 -0 -0 -0 -0 -0 -0 0 0
0 0 0 0 0 0 0 0 0 0 0 0 0 0 0 0 0 0 0 0 0 0 0 0 0 0 0 0 0 0 0 0 0 0 0 0 0 -0 -0 -0 -0 0 0 0
0 0 0 0 0 0 0 0 0 0 0 0 0 0 0 0 0 0 0 0 0 0 0 0 0 0 0 0 0 0 0 0 0 0 0 0 0 0 0 0 0 0 0 0
0 0 0 0 0 0 0 0 0 0 0 0 0 0 0 0 0 0 0 0 0 0 0 0 0 0 0 0 0 0 0 0 0 0 0 0 0 0 0 0 0 0 0 0
0 0 0 0 0 0 0 0 0 0 0 0 0 0 0 0 0 0 0 0 0 0 0 0 0 0 0 0 0 -0 0 0 0 0 0 0 0 0 0 0 0 0 0 0
0 0 0 0 0 0 0 0 0 0 0 0 0 0 0 0 0 0 0 0 0 0 0 0 0 0 0 0 0 -0 -0 0 0 0 0 0 0 0 0 0 0 0 0 0
0 0 0 0 0 0 0 0 0 0 0 0 0 0 0 0 0 0 0 0 0 0 0 0 0 0 0 0 0 -0 -0 0 0 0 0 0 0 0 0 0 0 0 0 0
0 0 0 0 0 0 0 0 0 0 0 0 0 0 0 0 0 0 0 0 0 0 0 0 0 0 0 0 0 0 0 0 0 0 0 0 0 0 0 0 0 0 0 0
0 0 0 0 0 0 0 0 0 0 0 0 0 0 0 0 0 0 0 0 0 0 0 0 0 0 0 0 0 0 0 0 0 0 0 0 0 0 0 0 0 0 0 0
0 0 0 0 0 0 0 0 0 0 0 0 0 0 0 0 0 0 0 0 0 0 0 0 0 0 0 0 0 0 0 0 0 0 0 0 0 0 0 0 0 0 0 0
0 0 0 0 0 0 0 0 0 0 0 0 0 0 0 0 0 0 0 0 0 0 0 0 0 0 0 0 0 0 0 0 0 0 0 0 0 0 0 0 0 0 0 0
0 0 0 0 0 0 0 0 0 0 0 0 0 0 0 0 0 0 0 0 0 0 0 0 0 0 0 0 0 0 0 0 0 0 0 0 0 0 0 0 0 0 0 0
0 0 0 0 0 0 0 0 0 0 0 0 0 0 0 0 0 0 0 0 0 0 0 0 0 0 0 0 0 0 0 0 0 0 0 0 0 0 0 0 0 0 0 0
0 0 0 0 0 0 0 0 0 0 0 0 0 0 0 0 0 0 0 0 0 0 0 0 0 0 0 0 0 0 0 0 0 0 0 0 0 0 0 0 0 0 0 0
0 0 0 0 0 0 0 0 0 0 0 0 0 0 0 0 0 0 0 0 0 0 0 0 0 0 0 0 0 0 0 0 0 0 0 0 0 0 0 0 0 0 0 0
0 0 0 0 0 0 0 0 0 0 0 0 0 0 0 0 0 0 0 0 0 0 0 0 0 0 0 0 0 0 0 0 0 0 0 0 0 0 0 0 0 0 0 0
0 0 0 0 0 0 0 0 0 0 0 0 0 0 0 0 0 0 0 0 0 0 0 0 0 0 0 0 0 0 0 0 0 0 0 0 0 0 0 0 0 0 0 0
0 0 0 0 0 0 0 0 0 0 0 0 0 0 0 0 0 0 0 0 0 0 0 0 0 0 0 0 0 0 0 0 0 0 0 0 0 0 0 0 0 -0 0 0
0 0 0 0 0 0 0 0 0 0 0 0 0 0 0 0 0 0 0 0 0 0 0 0 0 0 0 0 0 0 0 0 0 0 0 0 0 0 0 0 0 -0 0 0
Wind_Speed
4 8 5 4 1 1 1 2 3 1 3 7 12 12 6 5 10 10 11 13 14 13 13 14 13 13 12 13 11 11 11 10 8 6 6 8 9 9 9 9 14 15 16 16
6 5 4 1 4 5 3 2 3 5 6 9 14 11 5 5 10 11 12 11 11 13 14 15 15 16 17 18 18 16 14 12 9 4 3 3 3 4 6 8 11 13 16 16
7 2 4 4 6 8 3 1 2 5 4 6 13 6 4 6 11 13 12 11 14 15 15 15 15 14 14 16 15 15 16 16 13 7 4 4 4 4 6 11 12 15 16 17
5 4 4 4 3 3 3 4 5 4 2 3 4 2 2 5 11 12 9 9 11 14 15 13 15 15 15 14 13 14 13 14 12 8 5 4 4 5 7 9 11 14 15 16
2 3 5 5 5 3 6 10 6 2 4 1 1 4 1 3 8 8 8 9 12 15 13 12 13 14 15 15 12 13 14 14 13 10 9 7 6 7 8 9 11 13 14 15
3 2 2 3 3 1 8 6 2 3 3 0 0 4 0 3 3 4 6 9 12 13 12 10 13 14 15 14 13 14 15 14 13 11 11 11 12 13 13 13 12 11 11 12
5 3 4 3 4 5 8 7 6 7 5 3 1 5 3 3 1 2 5 7 10 12 11 11 15 16 15 12 13 14 14 14 13 13 13 12 12 13 13 13 12 13 12 12
6 5 5 5 2 4 4 5 4 2 5 7 4 4 5 3 1 3 4 7 12 14 10 12 15 16 16 16 15 16 16 15 16 16 16 14 13 10 10 11 13 12 12 13
4 4 3 1 2 2 4 3 1 2 3 4 1 4 2 1 3 6 8 11 11 11 10 12 14 15 15 15 15 17 18 19 18 17 16 16 15 14 14 15 15 13 14 14
1 3 2 3 3 3 2 2 3 4 4 7 3 0 3 9 9 9 9 11 10 11 11 12 13 15 15 16 17 16 17 18 18 18 16 14 15 15 15 14 15 16 16 17
2 2 4 3 3 3 4 4 3 1 1 3 6 2 3 2 4 7 9 10 11 12 13 14 14 15 16 15 15 16 16 17 17 17 16 16 15 16 15 13 15 16 16 17
2 1 4 2 2 2 3 3 2 2 4 3 4 3 4 1 4 6 7 8 8 9 11 11 13 14 14 17 17 17 15 15 16 16 16 15 15 16 15 14 16 17 15 17
2 1 5 6 3 4 4 3 1 1 1 3 4 5 2 4 6 8 9 7 7 10 11 12 14 14 13 15 16 17 16 16 16 16 15 15 15 16 16 16 16 16 16 18
1 1 2 3 2 3 4 4 2 2 1 4 5 10 10 11 13 15 12 8 9 12 13 15 15 14 14 14 15 16 16 15 16 15 15 15 15 15 15 15 16 16 16 17
3 1 2 4 2 1 2 3 3 4 1 2 7 8 8 9 9 10 7 7 10 13 14 14 15 15 15 14 16 16 15 14 15 15 15 14 14 14 14 14 15 16 15 14
2 1 3 5 3 3 4 3 4 3 1 4 6 7 6 8 7 11 7 8 12 13 15 15 15 15 15 15 16 16 15 15 15 15 15 15 14 14 14 14 14 15 14 12
2 2 1 4 4 2 1 1 2 2 4 3 4 8 9 12 14 13 9 12 12 13 13 12 12 13 12 13 14 14 15 15 15 14 15 15 15 14 14 14 14 14 14 12
3 2 2 2 4 2 2 2 3 3 5 2 7 10 8 8 11 4 6 10 11 10 9 9 9 11 11 11 13 12 13 13 14 14 15 15 14 14 14 14 14 14 13 12
2 3 1 1 1 3 2 3 3 4 5 2 7 9 9 10 9 0 6 8 9 7 6 7 7 9 10 10 11 11 12 13 14 14 15 15 14 13 13 14 14 13 12 11
3 3 2 2 1 5 3 4 3 1 4 4 4 6 7 11 11 6 6 7 8 6 8 8 8 9 9 11 11 10 11 13 14 15 15 14 13 12 11 12 12 12 11 11
0 1 1 2 4 7 4 4 2 1 5 5 3 3 3 3 8 8 7 7 7 6 9 9 8 6 7 10 11 11 11 13 14 14 14 14 13 12 11 11 10 10 10 10
4 3 3 3 4 6 2 1 1 5 5 5 2 2 4 6 6 6 7 7 7 8 9 10 8 8 7 9 11 11 12 14 14 13 14 13 13 11 10 11 11 10 9 9
4 5 4 6 6 4 1 3 4 4 3 1 1 4 4 4 6 7 8 7 7 8 8 8 8 8 7 9 10 11 12 13 13 13 13 12 12 11 11 11 11 9 9 8
3 2 2 2 3 3 2 2 2 1 1 1 1 2 1 3 4 5 8 8 7 8 9 9 9 10 9 10 10 10 11 12 12 12 11 11 10 12 10 9 9 9 9 8
3 1 2 3 5 4 2 2 0 3 3 1 0 3 2 1 3 3 5 7 7 8 8 9 9 9 10 10 10 11 10 11 11 11 10 9 8 8 8 8 9 9 10 12
4 5 4 4 4 2 3 2 2 3 2 2 2 3 4 4 1 3 4 5 6 7 8 9 9 9 10 10 11 10 10 10 9 10 10 9 8 6 7 7 8 13 17 20
Wind_Direction
29 52 22 350 14 116 243 268 295 299 29 49 90 90 67 40 58 51 41 35 33 23 6 4 359 353 353 351 348 344 347 342 342 343 342 346 353 347 342 342 337 340 337 331
45 32 327 34 44 43 23 16 344 317 8 76 96 90 73 55 58 55 52 40 24 13 5 359 356 355 353 352 353 347 337 327 321 317 303 302 304 314 317 329 332 338 335 327
94 343 355 53 29 22 351 165 245 268 318 116 125 106 106 71 63 54 43 31 23 9 357 356 357 355 356 2 1 353 346 343 336 325 316 307 314 321 334 340 339 338 332 328
67 8 36 38 36 28 302 254 268 256 267 212 178 148 136 82 59 43 26 20 10 3 356 352 357 0 6 1 352 348 345 341 338 334 327 332 357 348 338 333 327 324 325 324
31 15 29 15 349 353 288 296 292 210 177 257 350 111 208 68 40 12 3 10 9 2 355 357 4 2 355 348 351 345 342 338 335 333 342 359 358 342 327 327 322 320 321 320
34 28 48 343 325 2 311 327 18 73 93 286 132 122 221 38 41 352 356 4 356 353 350 4 5 356 349 349 354 347 346 341 342 354 4 2 346 337 333 332 324 321 318 315
1 10 359 2 353 347 8 12 21 7 3 279 55 79 118 118 100 13 11 357 345 351 355 6 359 353 344 344 352 345 344 344 358 356 352 348 342 338 335 332 327 321 316 314
21 345 353 357 8 318 355 49 62 330 287 294 356 116 160 168 135 21 22 353 355 356 360 1 354 350 341 342 346 343 344 351 351 350 349 345 345 339 333 329 324 319 314 309
18 293 303 343 339 25 359 40 130 224 283 286 238 114 141 153 15 13 2 353 354 350 354 350 350 350 344 337 347 352 350 351 353 351 345 344 342 338 334 330 326 320 314 307
150 279 296 325 7 14 63 59 12 357 320 302 310 80 306 0 355 346 339 343 346 349 348 348 355 347 350 355 355 352 353 353 349 344 342 340 338 336 330 326 321 317 312 309
32 306 307 16 40 328 4 28 42 285 230 278 297 319 60 22 326 315 325 344 348 346 347 350 351 346 347 350 351 349 352 351 348 343 340 340 339 333 325 321 321 320 312 309
26 76 289 293 306 0 71 70 63 2 304 283 265 264 109 194 269 301 327 349 341 341 338 348 347 344 349 352 349 347 349 354 345 340 339 340 337 333 331 332 333 330 323 317
339 57 332 340 340 9 31 34 66 108 352 293 287 275 240 309 310 332 345 351 334 340 344 352 350 350 355 352 348 345 345 348 341 335 337 338 337 334 334 340 337 336 337 332
52 175 192 247 327 345 313 332 347 49 52 305 292 298 322 338 339 336 343 352 343 346 353 354 353 352 349 349 346 343 339 341 336 333 334 336 337 335 334 339 338 338 341 343
65 315 303 284 329 316 308 8 43 80 56 240 276 290 300 313 310 310 334 342 344 350 353 354 351 348 345 348 345 342 337 338 337 336 335 333 335 334 332 336 337 337 340 345
53 12 0 314 12 16 71 42 62 77 313 282 295 289 281 288 304 321 347 346 349 348 349 351 349 345 346 349 343 339 337 340 341 339 336 335 336 337 337 336 335 339 338 343
63 67 54 279 333 44 95 41 65 311 273 271 286 281 300 319 326 331 354 351 348 341 347 347 345 342 342 344 338 335 339 341 342 339 337 336 337 337 338 339 340 341 342 338
122 141 161 285 344 293 227 212 193 256 274 262 289 285 291 297 303 354 11 350 341 339 346 341 340 336 337 338 336 336 340 341 340 340 340 339 338 338 339 341 342 341 343 346
110 145 70 8 272 277 242 253 267 285 280 227 273 297 312 317 300 49 12 353 336 344 345 337 339 334 335 334 331 335 341 343 342 342 340 338 339 339 344 345 342 344 345 347
61 73 98 102 298 265 233 252 261 234 268 246 266 300 314 329 333 342 5 352 342 359 354 347 342 339 339 336 333 335 341 344 343 341 338 336 338 337 344 344 342 343 347 348
84 38 165 178 239 262 246 268 311 61 283 290 265 275 294 302 296 317 347 346 347 4 350 348 335 328 327 332 335 338 341 344 338 336 336 338 340 339 350 344 340 339 344 347
190 184 202 174 248 272 235 326 194 240 269 277 289 268 264 280 302 324 337 340 349 349 346 344 336 329 329 335 338 338 340 337 336 335 337 340 339 345 350 343 341 340 346 344
209 200 200 202 224 233 247 210 230 231 268 352 264 266 283 311 322 335 340 343 349 339 341 338 334 329 332 337 338 335 335 336 336 336 338 339 341 351 346 344 343 347 352 347
258 212 212 264 251 233 221 245 282 17 94 129 220 248 98 284 319 344 344 344 343 338 341 338 335 335 334 335 335 329 331 334 334 335 335 337 349 354 344 344 343 348 348 347
240 180 189 259 284 310 292 324 352 116 105 107 103 136 151 61 8 344 336 342 334 333 337 334 333 332 328 328 328 326 327 329 331 333 332 333 350 343 335 339 342 347 344 350
201 183 172 227 217 185 264 295 104 121 139 170 161 123 80 78 18 337 337 330 329 338 333 333 331 329 326 324 322 321 323 324 323 330 330 331 343 332 332 328 332 342 348 350